SCP
-0 -0 -0 -0 -0 -0 -0 -0 -0 -0 -0 -0 -0 -0 -0 -0 -0 -0 -0 -0 -0 -0 -0 -0 -0 -0 -0 -0 0 -0 0 -0 -0 -0 -0 -0 0 0 -0 -0 0 -0 -0 -0 -0 0 0
-0 -0 -0 -0 -0 -0 -0 -0 -0 -0 -0 -0 -0 -0 -0 -0 -0 -0 -0 -0 -0 0 -0 -0 -0 -0 -0 -0 0 -0 -0 -0 -0 -0 -0 -0 0 0 -0 0 -0 -0 -0 -0 -0 0 0
-0 -0 -0 -0 -0 -0 -0 -0 -0 -0 -0 -0 -0 -0 -0 -0 -0 -0 -0 -0 -0 0 -0 -0 -0 -0 -0 -0 0 0 -0 0 0 -0 -0 0 -0 -0 0 -0 0 -0 -0 -0 -0 -0 -0
-0 -0 -0 -0 -0 -0 -0 -0 -0 -0 -0 -0 -0 -0 -0 -0 -0 -0 -0 -0 -0 -0 -0 -0 -0 -0 0 0 0 0 0 -0 0 -0 -0 0 0 0 0 0 -0 -0 -0 -0 0 -0 -0
-0 -0 -0 -0 -0 -0 -0 -0 -0 -0 -0 -0 -0 -0 -0 -0 -0 -0 -0 -0 -0 -0 0 0 -0 -0 0 0 0 -0 -0 -0 -0 -0 -0 -0 -0 -0 -0 0 -0 0 0 -0 -0 -0 -0
-0 -0 -0 -0 -0 -0 -0 -0 -0 -0 -0 -0 -0 -0 -0 -0 -0 -0 0 0 0 0 0 0 0 -0 0 0 0 0 -0 0 -0 -0 -0 -0 -0 -0 -0 0 -0 -0 0 0 0 -0 -0
-0 -0 -0 -0 -0 -0 -0 -0 -0 -0 -0 -0 -0 -0 -0 -0 -0 -0 0 0 0 0 -0 0 -0 0 0 0 0 -0 -0 -0 -0 -0 -0 -0 -0 0 -0 -0 -0 0 -0 0 0 0 -0
-0 -0 -0 -0 -0 -0 -0 -0 -0 -0 -0 -0 -0 -0 -0 -0 -0 -0 -0 -0 -0 0 0 0 0 0 0 -0 0 0 -0 -0 -0 -0 -0 0 -0 0 0 0 0 -0 -0 -0 0 -0 -0
-0 -0 -0 -0 -0 -0 -0 -0 -0 -0 -0 -0 -0 -0 -0 -0 -0 -0 -0 -0 -0 -0 -0 -0 0 -0 -0 0 0 -0 0 -0 0 -0 -0 -0 0 0 0 0 -0 0 -0 -0 -0 0 -0
-0 -0 -0 -0 -0 -0 -0 -0 -0 -0 -0 -0 -0 -0 -0 -0 -0 0 -0 -0 -0 -0 -0 -0 -0 0 0 0 0 0 0 0 -0 -0 -0 -0 0 -0 0 -0 0 0 0 0 0 0 -0
-0 -0 -0 -0 -0 -0 -0 -0 -0 -0 -0 -0 -0 -0 -0 -0 -0 -0 -0 0 -0 -0 0 -0 -0 -0 -0 0 -0 -0 0 0 -0 -0 0 -0 0 0 -0 -0 -0 0 0 0 0 -0 0
-0 -0 -0 -0 -0 -0 -0 -0 -0 -0 -0 -0 -0 -0 -0 0 0 -0 0 0 -0 0 0 -0 -0 -0 -0 -0 -0 -0 -0 -0 -0 -0 -0 -0 0 0 -0 0 0 0 -0 -0 -0 -0 -0
-0 -0 -0 -0 -0 -0 -0 -0 -0 -0 -0 -0 -0 -0 0 0 0 0 0 -0 0 -0 -0 -0 -0 -0 -0 -0 -0 -0 -0 -0 -0 -0 -0 -0 -0 -0 0 0 -0 -0 -0 -0 -0 -0 -0
-0 -0 -0 -0 -0 -0 -0 -0 -0 -0 -0 -0 -0 0 0 0 0 0 -0 -0 0 0 0 0 0 -0 0 -0 -0 -0 -0 -0 0 -0 -0 -0 -0 -0 -0 0 -0 -0 -0 -0 -0 0 0
0 -0 -0 -0 -0 -0 -0 -0 -0 -0 -0 -0 -0 0 0 0 0 0 -0 0 0 0 0 0 0 0 0 0 0 0 -0 -0 0 -0 0 0 -0 0 0 0 -0 0 -0 -0 -0 -0 0
-0 -0 -0 -0 -0 -0 -0 -0 -0 -0 -0 -0 0 0 0 0 0 0 0 -0 0 0 0 0 0 0 0 0 0 0 0 0 0 0 -0 0 0 0 0 0 0 -0 -0 0 -0 -0 0
0 0 -0 -0 -0 -0 -0 -0 -0 -0 -0 0 0 0 0 0 0 0 0 -0 0 0 0 0 0 0 0 0 0 0 0 0 0 0 0 -0 0 0 0 0 -0 0 -0 0 0 0 0
0 0 0 -0 -0 -0 -0 -0 -0 -0 -0 0 0 0 0 0 0 0 0 0 0 0 0 0 0 0 0 0 0 0 0 0 0 0 0 -0 0 0 0 -0 0 0 0 -0 0 0 -0
0 0 0 0 -0 -0 -0 -0 -0 -0 -0 0 0 0 0 -0 0 0 0 0 0 0 0 0 0 0 0 0 0 0 0 0 0 0 0 0 0 0 0 0 0 0 0 0 0 0 0
0 0 0 0 0 -0 -0 -0 -0 -0 -0 0 0 0 0 0 0 0 0 0 0 0 0 0 0 0 0 0 0 0 0 0 0 0 0 0 0 0 0 0 0 0 0 0 0 0 0
0 0 0 0 0 0 -0 -0 -0 -0 -0 0 0 0 0 0 0 0 0 0 0 0 0 0 0 0 0 0 0 0 0 0 0 0 0 0 0 0 0 0 0 0 0 0 0 0 0
0 0 0 0 0 0 0 -0 -0 -0 -0 0 0 0 0 0 0 0 0 0 0 0 0 0 0 0 0 0 0 0 0 0 0 0 0 0 0 0 0 0 0 0 0 0 0 0 0
0 0 0 0 0 0 0 0 0 -0 -0 0 0 0 0 0 0 0 0 0 0 0 0 0 0 0 0 0 0 0 0 0 0 0 0 0 0 0 0 0 0 0 0 0 0 0 0
0 0 0 0 0 0 0 0 0 0 0 0 0 0 0 0 0 0 0 0 0 0 0 0 0 0 0 0 0 0 0 0 0 0 0 0 0 0 0 0 0 0 0 0 0 0 0
0 0 0 0 0 0 0 0 0 0 0 0 0 0 0 0 0 0 0 0 0 0 0 0 0 0 0 0 0 0 0 0 0 0 0 0 0 0 0 0 0 0 0 0 0 0 0
0 0 0 0 0 0 0 0 0 0 0 0 0 0 0 0 0 0 0 0 0 0 0 0 0 0 0 0 0 0 0 0 0 0 0 0 0 0 0 0 0 0 0 0 0 0 0
0 0 0 0 0 0 0 0 0 0 0 0 0 0 0 0 0 0 0 0 0 0 0 0 0 0 0 0 0 0 0 0 0 0 0 0 0 0 0 0 0 0 0 0 0 0 0
0 0 0 0 0 0 0 0 0 0 0 0 0 0 0 0 0 0 0 0 0 0 0 0 0 0 0 0 0 0 0 0 0 0 0 0 0 0 0 0 0 0 0 0 0 0 0
0 0 0 0 0 0 0 0 0 0 0 0 0 0 0 0 0 0 0 0 0 0 0 0 0 0 0 0 0 0 0 0 0 0 0 0 0 0 0 0 0 0 0 0 0 0 0
Wind_Speed_500mb
30 30 30 29 28 27 27 27 27 27 25 25 24 23 23 19 13 7 1 3 6 7 10 12 13 14 14 16 6 13 18 17 11 3 9 14 21 19 6 6 9 22 19 22 28 17 28
31 30 29 29 29 28 27 27 27 27 27 25 24 23 21 19 14 9 4 2 5 8 10 12 13 15 15 24 7 12 16 18 11 9 7 11 10 18 18 11 13 14 20 22 21 20 7
31 31 30 29 29 29 29 28 28 28 28 26 24 22 21 18 14 8 4 1 6 8 10 11 14 15 14 4 11 13 22 18 14 10 8 6 12 20 9 11 4 22 19 21 20 13 17
32 32 32 33 32 32 31 30 29 28 28 27 25 22 20 17 13 6 2 2 6 8 10 11 14 15 4 8 10 16 24 20 17 13 8 8 13 14 21 11 14 6 16 16 13 12 18
34 34 34 34 34 34 33 32 31 30 29 27 24 21 18 15 10 2 5 4 5 8 11 14 10 12 11 13 11 17 25 20 18 16 13 14 16 20 16 11 12 8 2 13 18 15 7
36 36 36 36 35 35 35 34 33 31 30 27 24 20 16 12 6 4 6 8 9 9 12 17 11 15 15 22 19 18 24 18 21 19 20 20 23 27 30 19 3 8 14 13 14 19 16
37 37 37 37 37 37 36 35 35 33 31 28 23 19 15 9 2 8 9 2 5 6 24 13 24 7 13 16 17 17 23 20 21 20 28 20 23 12 14 27 9 9 4 12 4 7 14
38 37 37 37 38 38 37 37 36 35 33 29 23 17 13 6 6 11 7 10 8 9 21 22 11 13 9 22 20 20 22 24 29 28 33 10 27 17 11 10 13 14 11 9 11 5 17
38 37 37 38 38 38 39 39 38 37 34 30 25 17 10 5 8 14 12 6 3 9 17 22 21 25 23 23 25 31 27 32 19 28 23 31 14 6 8 13 18 26 12 0 10 11 19
37 37 37 38 39 41 41 42 40 38 36 31 24 18 9 1 7 11 14 10 5 8 11 27 24 19 22 21 17 11 28 22 18 25 23 20 1 7 17 20 12 6 7 10 11 18 11
39 38 38 40 41 43 43 43 43 40 37 33 24 16 10 19 11 16 8 5 6 6 12 28 31 22 27 34 23 28 25 27 28 25 16 25 18 19 24 25 3 14 14 16 15 24 23
39 39 39 41 43 45 46 46 46 42 37 35 28 15 13 16 21 15 10 6 4 14 5 18 25 26 29 33 18 18 24 28 25 22 19 38 5 16 23 10 11 10 18 21 24 24 19
39 38 39 41 45 47 48 49 48 44 40 35 28 12 18 20 7 16 12 13 13 18 16 21 28 35 35 25 24 22 28 30 21 21 28 34 36 27 24 21 21 20 28 18 18 19 9
41 39 38 41 45 48 51 51 50 45 40 33 18 4 17 29 14 14 16 17 17 9 11 10 21 28 30 27 25 25 25 27 31 25 23 19 28 38 29 29 21 30 26 21 9 10 13
39 38 39 41 44 49 53 54 51 46 38 24 4 6 3 11 18 19 26 20 12 4 10 13 16 21 28 23 14 24 28 28 26 24 21 10 16 8 11 20 30 28 24 25 24 25 15
38 36 37 39 44 49 53 56 53 45 34 10 4 9 7 11 20 21 20 32 6 11 15 15 23 24 27 27 23 25 27 20 18 16 27 7 17 15 19 18 23 27 25 17 18 16 18
39 36 36 38 42 48 53 56 54 45 29 5 5 15 6 15 21 26 21 30 10 7 13 14 22 12 26 18 30 29 15 17 8 9 24 27 17 14 12 21 24 17 26 26 28 22 20
39 37 36 38 41 45 50 54 55 48 24 5 14 8 11 23 24 31 24 24 10 13 12 14 13 18 18 20 15 29 23 6 6 17 22 29 18 23 28 22 15 20 21 24 20 24 22
40 39 37 37 40 43 48 50 52 47 31 7 13 5 12 22 15 17 15 9 11 13 11 7 13 9 2 16 11 19 16 21 6 17 7 10 18 24 24 19 28 23 28 23 29 23 25
38 39 39 37 39 42 45 47 49 43 28 6 13 10 15 25 22 24 14 23 21 7 6 14 14 10 16 20 16 9 19 13 4 16 16 13 25 33 27 25 15 11 22 24 22 23 22
38 39 38 37 38 40 43 45 46 41 23 5 10 3 11 7 16 17 8 8 22 12 10 11 12 19 13 24 24 21 23 8 16 14 16 16 31 34 39 39 36 24 30 26 27 27 29
37 38 38 38 37 37 40 42 44 41 22 10 16 13 5 6 2 14 9 10 15 11 8 11 18 4 12 19 22 11 36 9 19 15 19 25 31 30 40 40 35 44 37 38 39 38 40
38 37 38 37 36 34 35 38 40 42 26 14 15 9 11 13 11 16 1 6 9 4 8 7 14 9 21 18 18 19 21 28 29 14 24 26 23 25 39 31 37 49 39 43 36 42 38
37 37 37 36 34 32 30 32 34 36 35 26 21 12 17 6 12 9 4 3 9 4 16 3 9 12 14 20 23 31 37 37 36 32 32 28 27 22 29 35 44 33 32 29 20 27 33
35 36 36 34 32 30 27 25 27 26 28 24 26 10 12 6 9 9 8 3 5 6 14 11 5 9 17 17 16 22 21 27 34 34 33 33 28 26 29 32 40 35 17 17 25 26 14
32 33 33 32 31 28 25 22 22 24 22 18 22 17 10 21 9 8 5 4 7 7 11 6 3 10 12 16 16 15 16 10 8 9 11 30 30 25 26 35 39 28 21 19 11 21 25
31 31 32 31 29 27 23 19 16 18 20 12 17 22 6 14 7 5 6 11 5 7 7 6 2 7 7 12 16 20 23 21 20 24 15 16 20 30 28 30 38 28 15 4 19 4 14
29 31 30 29 28 25 22 17 13 13 16 11 10 20 9 8 7 2 6 5 3 6 11 14 11 12 10 11 10 12 9 14 8 18 24 24 20 21 26 33 42 20 9 13 15 11 15
29 29 30 28 26 24 21 16 10 8 13 13 8 20 11 4 6 4 4 4 3 3 11 3 10 6 16 8 3 9 10 11 15 19 11 17 19 19 17 19 11 8 7 6 12 20 25
Wind_Direction_500mb
30 27 24 22 20 17 12 8 4 1 360 1 359 359 359 360 360 354 50 188 194 193 202 193 182 180 177 218 74 168 164 161 159 190 240 269 275 312 181 205 355 62 94 105 99 97 83
26 24 20 17 14 11 8 6 1 358 354 355 356 355 356 354 358 346 350 135 175 173 191 191 189 186 199 248 122 181 173 165 179 214 238 278 335 319 310 358 73 103 121 112 112 97 120
23 19 15 13 10 7 3 1 357 355 351 351 351 351 349 350 352 348 335 149 156 165 179 190 186 195 247 37 165 195 186 189 205 220 279 311 317 265 342 117 213 140 142 147 135 152 126
18 14 11 8 6 3 0 357 354 350 348 348 346 345 345 346 345 350 11 199 157 158 165 183 177 187 292 184 176 190 194 206 212 230 262 296 306 288 300 131 202 156 217 94 150 193 111
11 8 7 4 1 359 356 353 350 348 345 344 343 341 341 340 339 13 87 114 133 142 152 159 153 202 167 187 188 198 198 208 214 227 250 279 290 273 196 203 34 7 249 250 149 166 138
9 6 4 2 359 356 353 351 348 346 343 342 341 338 337 337 329 164 109 102 105 128 141 145 198 230 207 207 184 184 198 205 209 222 241 248 243 236 96 82 176 337 353 358 147 190 201
7 6 3 0 358 356 355 351 347 343 342 341 338 335 334 340 251 179 158 140 192 190 207 276 171 258 146 162 170 192 201 212 221 232 247 193 272 181 214 173 360 167 87 307 135 38 274
5 4 2 360 358 357 355 351 347 343 340 338 336 332 325 330 196 180 177 242 3 349 211 213 215 218 169 182 183 194 193 211 212 236 214 233 239 51 35 315 291 282 201 174 115 143 259
4 3 1 360 358 357 355 352 347 342 339 337 334 330 316 308 203 197 202 255 279 330 249 170 205 205 190 194 212 188 199 214 234 239 237 263 63 55 264 253 266 244 59 31 158 199 232
2 1 360 359 357 356 354 351 348 342 337 335 330 322 300 208 140 199 226 220 280 305 261 148 195 208 186 205 211 192 202 220 229 253 238 255 271 257 247 261 266 339 55 278 269 273 192
358 359 358 357 357 355 352 350 347 342 336 331 324 310 261 192 196 202 164 208 268 234 252 151 154 147 185 204 111 192 205 213 250 217 263 225 221 228 240 255 300 308 333 307 304 278 273
355 356 356 355 355 353 351 349 348 341 335 328 321 300 240 217 212 190 221 245 238 233 204 158 155 188 184 211 190 142 184 221 233 255 239 265 138 279 266 282 249 335 268 252 255 248 252
353 353 354 353 354 352 350 347 348 341 335 330 322 282 223 193 185 205 204 210 225 254 135 150 176 175 196 183 178 188 192 197 209 212 228 225 240 223 241 241 212 237 256 251 220 213 96
351 351 352 353 353 352 350 347 348 343 335 335 329 255 199 190 215 195 191 228 255 352 175 131 165 187 204 178 204 198 199 213 224 252 282 214 216 206 207 230 248 208 245 287 323 270 31
350 349 350 352 353 352 350 349 348 346 337 339 33 56 138 214 198 192 213 225 250 18 23 200 196 207 199 190 233 197 218 218 204 212 256 209 238 95 183 245 226 246 251 280 294 275 247
351 349 349 349 351 351 350 349 348 349 338 330 157 213 186 199 183 183 231 249 337 344 315 278 221 210 211 197 197 195 187 211 214 209 227 290 267 172 151 232 243 258 280 259 215 261 266
353 350 348 348 350 351 351 350 349 352 344 207 217 218 166 176 174 212 229 236 217 163 279 268 253 268 253 235 202 215 241 126 236 202 242 247 241 163 169 212 228 190 234 245 278 293 302
353 351 349 348 349 351 352 351 352 353 2 168 277 240 160 167 202 221 230 234 20 254 219 255 288 300 289 270 257 242 235 156 124 268 220 236 270 242 224 233 241 305 283 230 230 221 238
353 352 349 348 349 352 354 354 354 354 358 276 259 72 178 185 232 206 213 244 254 248 235 248 243 251 191 273 261 267 255 79 97 247 318 274 230 254 240 226 200 233 246 249 269 275 266
354 352 350 348 349 352 355 357 356 356 353 310 277 207 165 214 265 283 185 228 201 244 259 282 303 259 251 245 223 279 260 120 262 286 16 297 266 273 280 264 7 217 238 254 269 268 260
353 353 352 350 350 352 356 359 1 359 1 356 240 4 346 197 211 252 305 343 231 179 249 255 228 254 274 260 242 238 246 168 199 169 245 247 262 275 280 288 293 289 274 264 264 270 268
353 353 353 353 352 353 357 2 6 10 33 25 325 330 246 347 261 253 150 206 267 117 271 203 259 51 304 266 297 312 329 225 271 197 243 247 260 272 276 281 283 280 262 267 271 272 273
351 353 353 354 353 353 356 3 10 17 41 24 356 317 284 110 218 235 110 94 218 342 177 326 327 299 258 26 351 320 308 305 290 301 282 286 278 271 264 263 271 263 258 258 268 272 267
349 351 352 352 353 354 355 360 9 20 37 38 3 331 277 183 264 2 63 260 230 278 306 152 303 276 20 321 303 274 261 261 261 260 258 257 265 272 273 283 258 269 290 316 308 300 307
346 348 350 351 351 352 352 356 4 11 24 52 5 14 318 323 23 165 199 224 207 189 242 274 271 316 312 296 273 247 245 247 252 249 242 249 258 257 259 255 264 266 256 264 266 263 343
343 345 348 347 348 349 350 349 358 7 15 55 357 12 317 305 82 21 247 312 279 201 163 212 293 303 286 264 236 252 250 285 227 197 248 242 240 253 251 263 267 277 50 21 307 248 23
339 342 344 345 344 344 346 344 348 4 13 31 354 5 334 289 85 310 325 360 315 276 305 124 330 222 252 247 247 252 254 251 255 261 240 224 241 250 238 250 263 289 75 73 252 34 3
334 337 339 341 341 342 341 341 340 358 12 56 346 6 35 300 70 70 15 308 231 246 299 76 228 196 222 258 264 273 261 287 309 281 289 282 262 238 247 261 263 25 305 272 43 1 338
330 332 335 335 336 338 337 337 335 349 9 53 360 340 358 253 23 238 221 243 195 356 330 167 357 354 7 293 315 307 287 262 271 273 294 250 271 306 323 330 26 4 49 31 325 319 309
Wind_Speed_850mb
30 30 30 29 28 27 27 27 27 27 25 25 24 23 23 19 13 7 1 3 6 7 10 12 13 14 14 16 6 13 18 17 11 3 9 14 21 19 6 6 9 22 19 22 28 17 28
31 30 29 29 29 28 27 27 27 27 27 25 24 23 21 19 14 9 4 2 5 8 10 12 13 15 15 24 7 12 16 18 11 9 7 11 10 18 18 11 13 14 20 22 21 20 7
31 31 30 29 29 29 29 28 28 28 28 26 24 22 21 18 14 8 4 1 6 8 10 11 14 15 14 4 11 13 22 18 14 10 8 6 12 20 9 11 4 22 19 21 20 13 17
32 32 32 33 32 32 31 30 29 28 28 27 25 22 20 17 13 6 2 2 6 8 10 11 14 15 4 8 10 16 24 20 17 13 8 8 13 14 21 11 14 6 16 16 13 12 18
34 34 34 34 34 34 33 32 31 30 29 27 24 21 18 15 10 2 5 4 5 8 11 14 10 12 11 13 11 17 25 20 18 16 13 14 16 20 16 11 12 8 2 13 18 15 7
36 36 36 36 35 35 35 34 33 31 30 27 24 20 16 12 6 4 6 8 9 9 12 17 11 15 15 22 19 18 24 18 21 19 20 20 23 27 30 19 3 8 14 13 14 19 16
37 37 37 37 37 37 36 35 35 33 31 28 23 19 15 9 2 8 9 2 5 6 24 13 24 7 13 16 17 17 23 20 21 20 28 20 23 12 14 27 9 9 4 12 4 7 14
38 37 37 37 38 38 37 37 36 35 33 29 23 17 13 6 6 11 7 10 8 9 21 22 11 13 9 22 20 20 22 24 29 28 33 10 27 17 11 10 13 14 11 9 11 5 17
38 37 37 38 38 38 39 39 38 37 34 30 25 17 10 5 8 14 12 6 3 9 17 22 21 25 23 23 25 31 27 32 19 28 23 31 14 6 8 13 18 26 12 0 10 11 19
37 37 37 38 39 41 41 42 40 38 36 31 24 18 9 1 7 11 14 10 5 8 11 27 24 19 22 21 17 11 28 22 18 25 23 20 1 7 17 20 12 6 7 10 11 18 11
39 38 38 40 41 43 43 43 43 40 37 33 24 16 10 19 11 16 8 5 6 6 12 28 31 22 27 34 23 28 25 27 28 25 16 25 18 19 24 25 3 14 14 16 15 24 23
39 39 39 41 43 45 46 46 46 42 37 35 28 15 13 16 21 15 10 6 4 14 5 18 25 26 29 33 18 18 24 28 25 22 19 38 5 16 23 10 11 10 18 21 24 24 19
39 38 39 41 45 47 48 49 48 44 40 35 28 12 18 20 7 16 12 13 13 18 16 21 28 35 35 25 24 22 28 30 21 21 28 34 36 27 24 21 21 20 28 18 18 19 9
41 39 38 41 45 48 51 51 50 45 40 33 18 4 17 29 14 14 16 17 17 9 11 10 21 28 30 27 25 25 25 27 31 25 23 19 28 38 29 29 21 30 26 21 9 10 13
39 38 39 41 44 49 53 54 51 46 38 24 4 6 3 11 18 19 26 20 12 4 10 13 16 21 28 23 14 24 28 28 26 24 21 10 16 8 11 20 30 28 24 25 24 25 15
38 36 37 39 44 49 53 56 53 45 34 10 4 9 7 11 20 21 20 32 6 11 15 15 23 24 27 27 23 25 27 20 18 16 27 7 17 15 19 18 23 27 25 17 18 16 18
39 36 36 38 42 48 53 56 54 45 29 5 5 15 6 15 21 26 21 30 10 7 13 14 22 12 26 18 30 29 15 17 8 9 24 27 17 14 12 21 24 17 26 26 28 22 20
39 37 36 38 41 45 50 54 55 48 24 5 14 8 11 23 24 31 24 24 10 13 12 14 13 18 18 20 15 29 23 6 6 17 22 29 18 23 28 22 15 20 21 24 20 24 22
40 39 37 37 40 43 48 50 52 47 31 7 13 5 12 22 15 17 15 9 11 13 11 7 13 9 2 16 11 19 16 21 6 17 7 10 18 24 24 19 28 23 28 23 29 23 25
38 39 39 37 39 42 45 47 49 43 28 6 13 10 15 25 22 24 14 23 21 7 6 14 14 10 16 20 16 9 19 13 4 16 16 13 25 33 27 25 15 11 22 24 22 23 22
38 39 38 37 38 40 43 45 46 41 23 5 10 3 11 7 16 17 8 8 22 12 10 11 12 19 13 24 24 21 23 8 16 14 16 16 31 34 39 39 36 24 30 26 27 27 29
37 38 38 38 37 37 40 42 44 41 22 10 16 13 5 6 2 14 9 10 15 11 8 11 18 4 12 19 22 11 36 9 19 15 19 25 31 30 40 40 35 44 37 38 39 38 40
38 37 38 37 36 34 35 38 40 42 26 14 15 9 11 13 11 16 1 6 9 4 8 7 14 9 21 18 18 19 21 28 29 14 24 26 23 25 39 31 37 49 39 43 36 42 38
37 37 37 36 34 32 30 32 34 36 35 26 21 12 17 6 12 9 4 3 9 4 16 3 9 12 14 20 23 31 37 37 36 32 32 28 27 22 29 35 44 33 32 29 20 27 33
35 36 36 34 32 30 27 25 27 26 28 24 26 10 12 6 9 9 8 3 5 6 14 11 5 9 17 17 16 22 21 27 34 34 33 33 28 26 29 32 40 35 17 17 25 26 14
32 33 33 32 31 28 25 22 22 24 22 18 22 17 10 21 9 8 5 4 7 7 11 6 3 10 12 16 16 15 16 10 8 9 11 30 30 25 26 35 39 28 21 19 11 21 25
31 31 32 31 29 27 23 19 16 18 20 12 17 22 6 14 7 5 6 11 5 7 7 6 2 7 7 12 16 20 23 21 20 24 15 16 20 30 28 30 38 28 15 4 19 4 14
29 31 30 29 28 25 22 17 13 13 16 11 10 20 9 8 7 2 6 5 3 6 11 14 11 12 10 11 10 12 9 14 8 18 24 24 20 21 26 33 42 20 9 13 15 11 15
29 29 30 28 26 24 21 16 10 8 13 13 8 20 11 4 6 4 4 4 3 3 11 3 10 6 16 8 3 9 10 11 15 19 11 17 19 19 17 19 11 8 7 6 12 20 25
Wind_Direction_850mb
30 27 24 22 20 17 12 8 4 1 360 1 359 359 359 360 360 354 50 188 194 193 202 193 182 180 177 218 74 168 164 161 159 190 240 269 275 312 181 205 355 62 94 105 99 97 83
26 24 20 17 14 11 8 6 1 358 354 355 356 355 356 354 358 346 350 135 175 173 191 191 189 186 199 248 122 181 173 165 179 214 238 278 335 319 310 358 73 103 121 112 112 97 120
23 19 15 13 10 7 3 1 357 355 351 351 351 351 349 350 352 348 335 149 156 165 179 190 186 195 247 37 165 195 186 189 205 220 279 311 317 265 342 117 213 140 142 147 135 152 126
18 14 11 8 6 3 0 357 354 350 348 348 346 345 345 346 345 350 11 199 157 158 165 183 177 187 292 184 176 190 194 206 212 230 262 296 306 288 300 131 202 156 217 94 150 193 111
11 8 7 4 1 359 356 353 350 348 345 344 343 341 341 340 339 13 87 114 133 142 152 159 153 202 167 187 188 198 198 208 214 227 250 279 290 273 196 203 34 7 249 250 149 166 138
9 6 4 2 359 356 353 351 348 346 343 342 341 338 337 337 329 164 109 102 105 128 141 145 198 230 207 207 184 184 198 205 209 222 241 248 243 236 96 82 176 337 353 358 147 190 201
7 6 3 0 358 356 355 351 347 343 342 341 338 335 334 340 251 179 158 140 192 190 207 276 171 258 146 162 170 192 201 212 221 232 247 193 272 181 214 173 360 167 87 307 135 38 274
5 4 2 360 358 357 355 351 347 343 340 338 336 332 325 330 196 180 177 242 3 349 211 213 215 218 169 182 183 194 193 211 212 236 214 233 239 51 35 315 291 282 201 174 115 143 259
4 3 1 360 358 357 355 352 347 342 339 337 334 330 316 308 203 197 202 255 279 330 249 170 205 205 190 194 212 188 199 214 234 239 237 263 63 55 264 253 266 244 59 31 158 199 232
2 1 360 359 357 356 354 351 348 342 337 335 330 322 300 208 140 199 226 220 280 305 261 148 195 208 186 205 211 192 202 220 229 253 238 255 271 257 247 261 266 339 55 278 269 273 192
358 359 358 357 357 355 352 350 347 342 336 331 324 310 261 192 196 202 164 208 268 234 252 151 154 147 185 204 111 192 205 213 250 217 263 225 221 228 240 255 300 308 333 307 304 278 273
355 356 356 355 355 353 351 349 348 341 335 328 321 300 240 217 212 190 221 245 238 233 204 158 155 188 184 211 190 142 184 221 233 255 239 265 138 279 266 282 249 335 268 252 255 248 252
353 353 354 353 354 352 350 347 348 341 335 330 322 282 223 193 185 205 204 210 225 254 135 150 176 175 196 183 178 188 192 197 209 212 228 225 240 223 241 241 212 237 256 251 220 213 96
351 351 352 353 353 352 350 347 348 343 335 335 329 255 199 190 215 195 191 228 255 352 175 131 165 187 204 178 204 198 199 213 224 252 282 214 216 206 207 230 248 208 245 287 323 270 31
350 349 350 352 353 352 350 349 348 346 337 339 33 56 138 214 198 192 213 225 250 18 23 200 196 207 199 190 233 197 218 218 204 212 256 209 238 95 183 245 226 246 251 280 294 275 247
351 349 349 349 351 351 350 349 348 349 338 330 157 213 186 199 183 183 231 249 337 344 315 278 221 210 211 197 197 195 187 211 214 209 227 290 267 172 151 232 243 258 280 259 215 261 266
353 350 348 348 350 351 351 350 349 352 344 207 217 218 166 176 174 212 229 236 217 163 279 268 253 268 253 235 202 215 241 126 236 202 242 247 241 163 169 212 228 190 234 245 278 293 302
353 351 349 348 349 351 352 351 352 353 2 168 277 240 160 167 202 221 230 234 20 254 219 255 288 300 289 270 257 242 235 156 124 268 220 236 270 242 224 233 241 305 283 230 230 221 238
353 352 349 348 349 352 354 354 354 354 358 276 259 72 178 185 232 206 213 244 254 248 235 248 243 251 191 273 261 267 255 79 97 247 318 274 230 254 240 226 200 233 246 249 269 275 266
354 352 350 348 349 352 355 357 356 356 353 310 277 207 165 214 265 283 185 228 201 244 259 282 303 259 251 245 223 279 260 120 262 286 16 297 266 273 280 264 7 217 238 254 269 268 260
353 353 352 350 350 352 356 359 1 359 1 356 240 4 346 197 211 252 305 343 231 179 249 255 228 254 274 260 242 238 246 168 199 169 245 247 262 275 280 288 293 289 274 264 264 270 268
353 353 353 353 352 353 357 2 6 10 33 25 325 330 246 347 261 253 150 206 267 117 271 203 259 51 304 266 297 312 329 225 271 197 243 247 260 272 276 281 283 280 262 267 271 272 273
351 353 353 354 353 353 356 3 10 17 41 24 356 317 284 110 218 235 110 94 218 342 177 326 327 299 258 26 351 320 308 305 290 301 282 286 278 271 264 263 271 263 258 258 268 272 267
349 351 352 352 353 354 355 360 9 20 37 38 3 331 277 183 264 2 63 260 230 278 306 152 303 276 20 321 303 274 261 261 261 260 258 257 265 272 273 283 258 269 290 316 308 300 307
346 348 350 351 351 352 352 356 4 11 24 52 5 14 318 323 23 165 199 224 207 189 242 274 271 316 312 296 273 247 245 247 252 249 242 249 258 257 259 255 264 266 256 264 266 263 343
343 345 348 347 348 349 350 349 358 7 15 55 357 12 317 305 82 21 247 312 279 201 163 212 293 303 286 264 236 252 250 285 227 197 248 242 240 253 251 263 267 277 50 21 307 248 23
339 342 344 345 344 344 346 344 348 4 13 31 354 5 334 289 85 310 325 360 315 276 305 124 330 222 252 247 247 252 254 251 255 261 240 224 241 250 238 250 263 289 75 73 252 34 3
334 337 339 341 341 342 341 341 340 358 12 56 346 6 35 300 70 70 15 308 231 246 299 76 228 196 222 258 264 273 261 287 309 281 289 282 262 238 247 261 263 25 305 272 43 1 338
330 332 335 335 336 338 337 337 335 349 9 53 360 340 358 253 23 238 221 243 195 356 330 167 357 354 7 293 315 307 287 262 271 273 294 250 271 306 323 330 26 4 49 31 325 319 309